Regional Weather Roundup
Issued by NWS

Home | Current Version | Previous Version | Text Only | Print | Product List | Glossary Off
Versions: 1 2 3 4 5 6 7 8 9 10 11 12 13 14 15 16 17 18 19 20 21 22 23 24 25 26 27 28 29 30 31 32 33 34 35 36 37 38 39 40 41 42 43 44 45 46 47 48 49 50

000
ASUS43 KOAX 262210
RWRNE

WEATHER ROUNDUP FOR NEBRASKA
NATIONAL WEATHER SERVICE OMAHA NE
400 PM CST THU FEB 26 2015

NOTES: SATELLITE DATA IS BEING USED TO AUGMENT CLOUD COVER ABOVE
       12000 FEET.
       "FAIR" INDICATES FEW OR NO CLOUDS BELOW 12,000 FEET WITH NO
       SIGNIFICANT WEATHER AND/OR OBSTRUCTIONS TO VISIBILITY.

  * THESE STATIONS DO NOT REPORT WEATHER SUCH AS RAIN...SNOW OR FOG.

NEZ001>004-019>022-054>056-262300-
NEBRASKA PANHANDLE

CITY           SKY/WX    TMP DP  RH WIND       PRES   REMARKS
SCOTTSBLUFF    CLOUDY    17   2  51 E6        30.27F WCI   9
ALLIANCE       PTSUNNY   12   1  61 N14       30.29S WCI  -3
CHADRON        PTSUNNY   13   1  59 N8        30.37S WCI   2
KIMBALL        LGT SNOW  15   7  71 NE5       30.18R WCI   7
SIDNEY         LGT SNOW  16   8  71 NE8       30.25S WCI   5
$$

NEZ057>060-069>072-079>082-262300-
SOUTHWEST NEBRASKA

CITY           SKY/WX    TMP DP  RH WIND       PRES   REMARKS
NORTH PLATTE   SUNNY     21  -5  31 N12G22    30.35F WCI   9
IMPERIAL         N/A     22   0  38 N12       30.31S WCI  10
LEXINGTON      SUNNY     20  -7  29 N15       30.39F WCI   6
MCCOOK         SUNNY     25  -4  28 N8G20     30.36F WCI  16
OGALLALA       PTSUNNY   19   1  44 N8        30.33R WCI   9
$$

NEZ005>010-023>029-035>040-094-262300-
NORTH CENTRAL NEBRASKA

CITY           SKY/WX    TMP DP  RH WIND       PRES   REMARKS
VALENTINE      MOSUNNY   13  -3  49 N9        30.43S WCI   1
AINSWORTH      MOSUNNY   11  -3  52 NW14      30.43R WCI  -5
BROKEN BOW     SUNNY     18  -5  36 N17       30.39S WCI   3
O`NEILL        CLOUDY    11   1  64 N13       30.47S WCI  -4
ORD            SUNNY     16  -7  35 N14G23    30.43F WCI   2
THEDFORD       SUNNY     17  -4  39 N13       30.38R WCI   3
$$

NEZ041-046>049-061>064-073>077-083>087-262300-
SOUTH CENTRAL NEBRASKA

CITY           SKY/WX    TMP DP  RH WIND       PRES   REMARKS
GRAND ISLAND   SUNNY     16  -5  39 N12G24    30.46S WCI   3
AURORA         MOSUNNY   17  -5  38 N15G21    30.46S WCI   2
HASTINGS       SUNNY     19  -8  30 N13       30.43S WCI   6
HEBRON         SUNNY     18  -5  36 N13       30.47S WCI   5
HOLDREGE       SUNNY     20  -9  27 N15       30.40S WCI   6
KEARNEY *      SUNNY     18  -8  32 NE10      30.42F WCI   6
YORK           SUNNY     16  -2  45 N10       30.47S WCI   3
$$

NEZ011>018-030>034-042>045-262300-
NORTHEAST NEBRASKA

CITY           SKY/WX    TMP DP  RH WIND       PRES   REMARKS
NORFOLK        MIX PCPN  13   3  64 N17G26    30.47S WCI  -4
ALBION         MOSUNNY   12  -2  54 NW15G22   30.46F WCI  -4
BLAIR          CLOUDY    11   0  60 NW9G23    30.49R WCI  -2
COLUMBUS *     PTSUNNY   12  -4  48 N14G21    30.50S WCI  -3
FREMONT        PTSUNNY   13   2  59 NW14      30.51S WCI  -2
TEKAMAH        CLOUDY    13   2  61 N14       30.52S WCI  -2
WAYNE          CLOUDY    10   0  63 N14G20    30.50S WCI  -6
$$

NEZ050>053-065>068-078-088>093-262300-
SOUTHEAST NEBRASKA

CITY           SKY/WX    TMP DP  RH WIND       PRES   REMARKS
LINCOLN        PTSUNNY   13  -1  54 N16       30.52S WCI  -3
OMAHA EPPLEY   PTSUNNY   11   2  67 N15       30.53R WCI  -5
BEATRICE       MOSUNNY   16   1  51 N15       30.49R WCI   1
FALLS CITY     SUNNY     16  -4  41 N13G24    30.49R WCI   2
NEBRASKA CITY  CLOUDY    13  -2  51 N15       30.49S WCI  -3
PLATTSMOUTH    PTSUNNY   11  -1  57 NW16      30.50R WCI  -6
$$

NEZ044-045-051>053-067-262300-
OMAHA AREA

CITY           SKY/WX    TMP DP  RH WIND       PRES   REMARKS
OMAHA EPPLEY   PTSUNNY   11   2  67 N15       30.53R WCI  -5
BLAIR          CLOUDY    11   0  60 NW9G23    30.49R WCI  -2
FREMONT        PTSUNNY   13   2  59 NW14      30.51S WCI  -2
MILLARD        CLOUDY    12   1  61 NW8       30.53R WCI   0
PLATTSMOUTH    PTSUNNY   11  -1  57 NW16      30.50R WCI  -6
WAHOO          CLOUDY    13   2  61 N17       30.51R WCI  -3
$$


USA.gov is the U.S. government's official web portal to all federal, state and local government web resources and services.